Tracking 30415 objects as of 16-May-2025
HD Live streaming from Space Station
objects crossing your sky now

THOR ABLESTAR DEB

Track THOR ABLESTAR DEB now!
10-day predictions


NORAD ID: 469
Int'l Code: 1961-015FF
Perigee: 747.8 km
Apogee: 822.3 km
Inclination: 66.8 °
Period: 100.4 minutes
Semi major axis: 7156 km
RCS: 0.056 m2 (small)
Launch date: June 29, 1961
Source: United States (US)
Launch site: AIR FORCE EASTERN TEST RANGE (AFETR)

Note: This is SATELLITE DEBRIS
Your satellite tracking list
Your tracking list is empty




NASA's NSSDC Master Catalog

Two Line Element Set (TLE):
1 00469U 61015FF  25135.33069423  .00001098  00000-0  41580-3 0  9997
2 00469  66.8312 118.5268 0052036 139.6872 220.8106 14.34135269295946
Source of the keplerian elements: AFSPC